Back to catalog

FENGYUN 1C DEB

AlivePO
NORAD 31914·DEBRIS·🇨🇳 China

Launched May 10, 1999 from Taiyuan Satellite Launch Center

Loading…

Next Passes (next 24 hours)

TLE

FreshSource: Space-Track

Epoch: Sep 13, 2026, 15:42 UTC

1 31914U 99025CLR 26256.65434051  .00000526  00000-0  10786-3 0  9990
2 31914  98.9876 146.5843 0180531 316.8109  41.9045 14.56114895724734

Track FENGYUN 1C DEB in real time with AllMySat

Download on the App Store